National Weather Service United States Department of Commerce


045
ASUS42 KCAE 230410
RWRCAE
REGIONAL WEATHER ROUNDUP
NATIONAL WEATHER SERVICE COLUMBIA SC
1200 AM EDT SAT JUN 23 2018

NOTE: "FAIR" INDICATES FEW OR NO CLOUDS BELOW 12,000 FEET WITH NO
SIGNIFICANT WEATHER AND/OR OBSTRUCTIONS TO VISIBILITY.

NOT ALL STATIONS ARE QUALITY CONTROLLED BY THE NATIONAL
WEATHER SERVICE. USE DATA WITH CAUTION...ESPECIALLY
DEWPOINT OBSERVATIONS.

SCZ001>056-GAZ040-063>065-077-230500-
...UPSTATE SOUTH CAROLINA...

CITY SKY/WX TMP DP RH WIND PRES REMARKS
ANDERSON FAIR 71 69 93 S8 29.87S
LIBERTY FAIR 69 69 100 CALM 29.87R FOG
SPARTANBURG FAIR 70 68 94 CALM 29.87R
CLEMSON FAIR 69 69 100 SW3 29.88S
GREENVILLE FAIR 72 71 97 SW7 29.89R
GREENWOOD FAIR 71 71 100 S6 29.90R
GREER FAIR 70 70 100 SW9 29.88R
ROCK HILL FAIR 72 69 90 SW7 29.86F
CHESTER FAIR 72 66 83 S5 29.87S
LAURENS FAIR 70 70 100 SW5 29.87F


...CENTRAL SOUTH CAROLINA...

CITY SKY/WX TMP DP RH WIND PRES REMARKS
COLUMBIA APT MOCLDY 79 70 74 S5 29.86S
COLUMBIA OWENS FAIR 78 68 71 SW3 29.87S
MCENTIRE ANGB FAIR 78 68 70 CALM 29.87S
ORANGEBURG FAIR 79 73 82 S5 29.88R
SUMTER SHAW FAIR 82 69 66 NW7 29.85R
NEWBERRY FAIR 72 72 100 SW3 29.91R
AIKEN MOCLDY 73 68 83 SW14 29.95R
BARNWELL FAIR 82 73 74 S7 29.89R
MANNING FAIR 79 73 83 SW8 29.87S
CAMDEN FAIR 77 68 73 SW3 29.87S
WINNSBORO FAIR 72 70 94 SW3 29.87R


...EASTERN AND COASTAL SOUTH CAROLINA...

CITY SKY/WX TMP DP RH WIND PRES REMARKS
MYRTLE BEACH FAIR 82 76 81 SW8 29.88F
N MYRTLE BCH FAIR 81 78 91 SW12 29.86F
CONWAY FAIR 79 79 100 S6 29.87S FOG
MARION FAIR 81 75 83 S8 29.86S
HARTSVILLE FAIR 75 66 73 W3 29.86R
FLORENCE FAIR 83 77 82 S8 29.85S
DARLINGTON N/A 84 72 67 W20G28 29.87R
CHARLESTON APT FAIR 82 78 88 SW8 29.87F
MOUNT PLEASANT FAIR 82 79 89 S5 29.88S
WALTERBORO FAIR 81 73 78 SW6 29.90R
BEAUFORT FAIR 82 75 79 SW7 29.90


...EASTERN GEORGIA...

CITY SKY/WX TMP DP RH WIND PRES REMARKS
AUGUSTA BUSH F TSTM N/A N/A N/A SW6 29.91F
AUGUSTA DANIEL LGT RAIN 74 72 93 SW5 29.92R
THOMSON FAIR 72 70 96 SW7 29.95R
CLAXTON FAIR 83 76 79 S3 29.91R
SYLVANIA FAIR 82 76 81 SW5 29.92R
STATESBORO FAIR 81 74 78 SW5 29.92R
SAVANNAH FAIR 81 72 74 SW9 29.91R


...SOUTHERN NORTH CAROLINA...

CITY SKY/WX TMP DP RH WIND PRES REMARKS
CHARLOTTE FAIR 72 70 93 S5 29.85F
MONROE FAIR 74 66 76 SW8 29.85F
WADESBORO LGT RAIN 76 69 76 W6G20 29.85R
ROCKINGHAM MOCLDY 82 69 64 W21G44 29.87R
RUTHERFORDTON FAIR 72 67 86 S3 29.86F
ASHEVILLE FAIR 69 63 81 SE3 29.90F

$$